DW6455 Orivesi FI current weather conditions

sailwx.info

Wind from 097 at 1 knots gusting 6

Air temperature 11.7° C
Dewpoint 10.4° C

Last reported at 2016-May-27 20:47 UTC.
Time now 2016-May-27 22:01 UTC

Location: N 61°39' E 024°21'.
View on Google Maps.

See reports from other nearby stations

  
Tides and Currents Weather Stations Pressure Air Temp Water Temp Dewpoint Dewpoint Depression Visibility Wind Speed Wind Dir Waves Ship Positions
date/time (UTC)wind fromknots sea level pressurealtimeterstation pressurevisibilityair tempwater tempwave heightnotes
2016-May-27 20:47 097 1 gusting 6 11.7
2016-May-27 20:42 144 2 gusting 6 11.7
2016-May-27 20:37 126 2 gusting 3 11.7
2016-May-27 20:32 117 1 gusting 3 11.7
2016-May-27 20:27 095 1 gusting 3 11.7
2016-May-27 20:22 119 1 gusting 3 11.7
2016-May-27 20:17 113 1 gusting 3 11.7
2016-May-27 20:12 117 1 gusting 3 11.7
2016-May-27 20:07 080 1 gusting 3 12.2
2016-May-27 20:02 080 0 gusting 3 12.2
2016-May-27 19:57 071 0 gusting 3 12.2
2016-May-27 19:52 088 0 gusting 3 12.2
2016-May-27 19:47 078 0 gusting 6 12.2
2016-May-27 19:42 090 1 gusting 6 12.2
2016-May-27 19:37 090 1 gusting 6 12.2
2016-May-27 19:32 114 2 gusting 6 12.2
2016-May-27 19:27 136 2 gusting 6 12.2
2016-May-27 19:22 122 2 gusting 6 12.2
2016-May-27 19:17 099 2 gusting 6 12.2
2016-May-27 19:12 092 1 gusting 6 12.2
2016-May-27 19:07 105 0 gusting 5 12.2
2016-May-27 19:02 059 0 gusting 5 12.2
2016-May-27 18:57 096 0 gusting 5 12.2
2016-May-27 18:52 095 0 gusting 5 12.2
2016-May-27 18:47 070 0 gusting 3 12.2
2016-May-27 18:42 081 0 gusting 3 12.2
2016-May-27 18:37 115 1 gusting 3 12.8
2016-May-27 18:32 118 1 gusting 3 12.8
2016-May-27 18:27 085 1 gusting 3 12.8
2016-May-27 18:22 106 0 gusting 3 12.8
2016-May-27 18:17 095 0 gusting 6 12.8
2016-May-27 18:12 102 1 gusting 6 12.8
2016-May-27 18:07 124 2 gusting 5 12.8
2016-May-27 18:02 101 2 gusting 5 12.8
2016-May-27 17:57 123 2 gusting 5 12.8
2016-May-27 17:52 107 1 gusting 5 12.8
2016-May-27 17:47 088 0 gusting 3 12.8
2016-May-27 17:42 091 0 gusting 3 12.8
2016-May-27 17:37 078 0 gusting 6 12.8
2016-May-27 17:32 119 0 gusting 6 12.8
2016-May-27 17:27 062 0 gusting 6 12.8
2016-May-27 17:22 094 1 gusting 6 13.3
2016-May-27 17:17 098 2 gusting 4 13.3
2016-May-27 17:12 110 1 gusting 4 13.3
2016-May-27 17:07 113 1 gusting 6 13.3
2016-May-27 17:02 091 1 gusting 6 13.3
2016-May-27 16:57 053 2 gusting 6 13.3
2016-May-27 16:52 130 2 gusting 8 13.3
2016-May-27 16:47 135 3 gusting 8 13.3
2016-May-27 16:42 137 3 gusting 8 13.3
2016-May-27 16:37 082 4 gusting 6 13.9
2016-May-27 16:32 115 3 gusting 6 13.9
2016-May-27 16:27 132 1 gusting 6 13.9
2016-May-27 16:22 027 1 gusting 6 13.9
2016-May-27 16:17 125 1 gusting 6 13.9
2016-May-27 16:12 115 1 gusting 6 13.9
2016-May-27 16:07 110 1 gusting 6 13.9
2016-May-27 16:02 132 1 gusting 6 13.9
2016-May-27 15:57 053 2 gusting 6 13.9
2016-May-27 15:52 109 2 gusting 6 13.3
2016-May-27 15:47 105 2 gusting 6 13.3
2016-May-27 15:42 111 2 gusting 6 13.3
2016-May-27 15:37 132 2 gusting 6 13.3
2016-May-27 15:32 094 2 gusting 6 13.3
2016-May-27 15:27 100 1 gusting 6 13.9
2016-May-27 15:22 102 1 gusting 6 13.9
2016-May-27 15:17 092 1 gusting 6 13.9
2016-May-27 15:12 120 2 gusting 6 13.3
2016-May-27 15:07 083 2 gusting 5 13.3
2016-May-27 15:02 026 1 gusting 5 13.3
2016-May-27 14:57 046 1 gusting 5 13.3
2016-May-27 14:52 069 1 gusting 5 13.3
2016-May-27 14:47 088 1 gusting 6 13.3
2016-May-27 14:42 078 1 gusting 6 12.8
2016-May-27 14:37 115 2 gusting 6 12.8
2016-May-27 14:32 143 3 gusting 6 12.8
2016-May-27 14:27 114 3 gusting 6 12.8
2016-May-27 14:22 126 2 gusting 6 12.8
2016-May-27 14:17 136 2 gusting 7 12.8
2016-May-27 14:12 119 3 gusting 7 12.8
2016-May-27 14:07 096 3 gusting 6 12.8
2016-May-27 14:02 112 3 gusting 6 12.8
2016-May-27 13:57 156 3 gusting 6 12.8
2016-May-27 13:52 103 2 gusting 6 12.8
2016-May-27 13:47 121 1 gusting 9 12.8
2016-May-27 13:42 053 1 gusting 9 12.8
2016-May-27 13:37 053 3 gusting 7 12.8
2016-May-27 13:32 132 4 gusting 7 12.8
2016-May-27 13:27 117 3 gusting 7 12.8
2016-May-27 13:22 102 3 gusting 7 12.8
2016-May-27 13:17 076 2 gusting 7 12.2
2016-May-27 13:12 109 2 gusting 7 12.2
2016-May-27 13:07 069 2 gusting 6 12.2
2016-May-27 13:02 084 2 gusting 6 12.2
2016-May-27 12:57 102 1 gusting 6 12.2
2016-May-27 12:52 112 1 gusting 6 12.2
2016-May-27 12:47 113 1 gusting 6 11.7
2016-May-27 12:42 077 1 gusting 6 11.7
2016-May-27 12:37 086 2 gusting 6 11.7
2016-May-27 12:32 055 1 gusting 6 11.7
2016-May-27 12:27 150 1 gusting 6 11.7
2016-May-27 12:22 055 2 gusting 6 11.7
2016-May-27 12:17 138 1 gusting 7 11.7
2016-May-27 12:12 074 1 gusting 7 11.7
2016-May-27 12:07 112 2 gusting 5 11.7
2016-May-27 12:02 068 2 gusting 5 11.7
2016-May-27 11:57 092 1 gusting 5 11.7
2016-May-27 11:52 075 1 gusting 5 11.7
2016-May-27 11:47 112 0 gusting 7 11.7
2016-May-27 11:42 063 1 gusting 7 11.7
2016-May-27 11:37 063 2 gusting 6 11.1
2016-May-27 11:32 087 2 gusting 6 11.1
2016-May-27 11:27 086 2 gusting 6 11.1
2016-May-27 11:22 065 1 gusting 6 11.7
2016-May-27 11:17 086 1 gusting 6 11.1
2016-May-27 11:12 054 1 gusting 6 11.1
2016-May-27 11:07 099 2 gusting 6 11.1
2016-May-27 11:02 073 2 gusting 6 11.1
2016-May-27 10:57 074 1 gusting 6 11.1
2016-May-27 10:52 061 1 gusting 6 11.1
2016-May-27 10:47 131 2 gusting 6 11.1
2016-May-27 10:42 066 1 gusting 6 11.1
2016-May-27 10:37 043 1 gusting 5 11.1
2016-May-27 10:32 073 1 gusting 5 11.1
2016-May-27 10:27 053 1 gusting 5 11.1
2016-May-27 10:22 058 1 gusting 5 11.1
2016-May-27 10:17 079 1 gusting 6 11.1
2016-May-27 10:12 084 1 gusting 6 11.1
2016-May-27 10:07 085 1 gusting 6 11.1
2016-May-27 10:02 100 1 gusting 6 10.6
2016-May-27 09:57 123 1 gusting 6 10.6
2016-May-27 09:52 075 2 gusting 6 10.6
2016-May-27 09:47 078 2 gusting 6 10.6
2016-May-27 09:42 100 2 gusting 6 10.6
2016-May-27 09:37 083 2 gusting 9 10.6
2016-May-27 09:32 049 2 gusting 9 10.6
2016-May-27 09:27 115 2 gusting 9 10.6
2016-May-27 09:22 028 2 gusting 6 10.6
2016-May-27 09:17 066 1 gusting 6 10.6
2016-May-27 09:12 096 1 gusting 6 10.6
2016-May-27 09:07 056 1 gusting 7 11.1
2016-May-27 09:02 087 2 gusting 7 10.6
2016-May-27 08:57 080 2 gusting 7 10.6
2016-May-27 08:52 105 2 gusting 7 10.6
2016-May-27 08:47 084 2 gusting 7 10.6
2016-May-27 08:42 039 1 gusting 7 10.6
2016-May-27 08:37 085 1 gusting 6 10.6
2016-May-27 08:32 111 2 gusting 6 10.6
2016-May-27 08:27 118 2 gusting 6 10.6
2016-May-27 08:22 068 1 gusting 6 10.6
2016-May-27 08:17 118 0 gusting 7 10.6
2016-May-27 08:12 355 1 gusting 7 10.6
2016-May-27 08:07 040 2 gusting 7 10.6
2016-May-27 08:02 063 2 gusting 7 10.0
2016-May-27 07:57 036 2 gusting 7 10.6
2016-May-27 07:52 082 1 gusting 7 10.0
2016-May-27 07:47 082 2 gusting 7 10.0
2016-May-27 07:42 087 2 gusting 7 10.0
2016-May-27 07:37 076 2 gusting 6 10.0
2016-May-27 07:32 091 2 gusting 6 10.0
2016-May-27 07:27 041 2 gusting 6 10.0
2016-May-27 07:22 022 1 gusting 6 10.0
2016-May-27 07:17 053 0 gusting 5 10.0
2016-May-27 07:12 103 0 gusting 5 10.0
2016-May-27 07:07 076 0 gusting 6 10.0
2016-May-27 07:02 082 0 gusting 6 10.0
2016-May-27 06:57 090 0 gusting 6 10.0
2016-May-27 06:52 115 0 gusting 6 10.0
2016-May-27 06:47 049 1 gusting 3 10.0
2016-May-27 06:42 068 1 gusting 3 10.0
2016-May-27 06:37 098 0 gusting 4 10.0
2016-May-27 06:32 038 0 gusting 4 10.0
2016-May-27 06:27 069 1 gusting 4 9.4
2016-May-27 06:22 066 1 gusting 4 9.4
2016-May-27 06:17 073 0 gusting 6 9.4
2016-May-27 06:12 059 0 gusting 6 9.4
2016-May-27 06:07 058 1 gusting 7 9.4
2016-May-27 06:02 064 1 gusting 7 9.4
2016-May-27 05:57 093 2 gusting 7 9.4
2016-May-27 05:52 078 2 gusting 7 9.4
2016-May-27 05:47 087 1 gusting 6 9.4
2016-May-27 05:42 122 1 gusting 6 9.4
2016-May-27 05:37 056 1 gusting 6 9.4
2016-May-27 05:32 087 1 gusting 6 9.4
2016-May-27 05:27 107 1 gusting 6 9.4
2016-May-27 05:22 092 1 gusting 6 9.4
2016-May-27 05:17 089 1 gusting 6 9.4
2016-May-27 05:12 067 0 gusting 6 9.4
2016-May-27 05:07 029 1 gusting 6 9.4
2016-May-27 05:02 087 1 gusting 6 9.4
2016-May-27 04:57 059 1 gusting 6 9.4
2016-May-27 04:52 037 1 gusting 6 9.4
2016-May-27 04:47 090 1 gusting 6 9.4
2016-May-27 04:42 047 1 gusting 6 8.9
2016-May-27 04:37 052 1 gusting 6 8.9
2016-May-27 04:32 042 1 gusting 6 8.9
2016-May-27 04:27 041 2 gusting 6 8.9
2016-May-27 04:22 065 2 gusting 6 8.9
2016-May-27 04:17 043 1 gusting 6 8.9
2016-May-27 04:12 046 0 gusting 6 8.9
2016-May-27 04:07 060 1 gusting 6 8.9
2016-May-27 04:02 019 1 gusting 6 8.9
2016-May-27 03:57 028 1 gusting 6 8.9
2016-May-27 03:52 072 1 gusting 6 8.9
2016-May-27 03:47 074 1 gusting 6 8.9
2016-May-27 03:42 041 1 gusting 6 8.9
2016-May-27 03:37 025 0 gusting 5 8.9
2016-May-27 03:32 055 0 gusting 5 8.9
2016-May-27 03:27 063 1 gusting 5 8.9
2016-May-27 03:22 065 1 gusting 6 8.3
2016-May-27 03:17 058 2 gusting 6 8.3
2016-May-27 03:12 067 2 gusting 6 8.3
2016-May-27 03:07 032 2 gusting 6 8.3
2016-May-27 03:02 070 1 gusting 6 8.3
2016-May-27 02:57 042 1 gusting 6 8.3
2016-May-27 02:52 051 1 gusting 6 8.3
2016-May-27 02:47 040 2 gusting 8 8.3
2016-May-27 02:42 042 2 gusting 8 8.3
2016-May-27 02:37 057 3 gusting 7 8.3
2016-May-27 02:32 048 2 gusting 7 8.3
2016-May-27 02:27 065 2 gusting 7 8.3
2016-May-27 02:22 076 1 gusting 7 8.3
2016-May-27 02:17 045 2 gusting 9 8.3
2016-May-27 02:12 034 4 gusting 9 8.3
2016-May-27 02:07 061 2 gusting 9 8.3
2016-May-27 02:02 011 2 gusting 9 8.3
2016-May-27 01:57 114 3 gusting 9 8.9
2016-May-27 01:52 076 3 gusting 7 8.9
2016-May-27 01:47 022 1 gusting 7 8.9
2016-May-27 01:42 089 1 gusting 9 8.9
2016-May-27 01:37 061 3 gusting 9 8.9
2016-May-27 01:32 059 3 gusting 11 8.9
2016-May-27 01:27 067 4 gusting 11 8.9
2016-May-27 01:22 055 3 gusting 6 8.9
2016-May-27 01:17 080 1 gusting 6 8.9
2016-May-27 01:12 060 0 gusting 9 8.9
2016-May-27 01:07 042 2 gusting 9 8.9
2016-May-27 01:02 069 3 gusting 8 8.9
2016-May-27 00:57 027 3 gusting 8 8.9
2016-May-27 00:52 342 3 gusting 8 8.9
2016-May-27 00:47 014 2 gusting 8 8.9
2016-May-27 00:42 061 2 gusting 8 8.9
2016-May-27 00:37 052 3 gusting 8 8.9
2016-May-27 00:32 083 1 gusting 7 8.9
2016-May-27 00:27 036 1 gusting 7 8.9
2016-May-27 00:22 036 2 gusting 8 8.9
2016-May-27 00:17 051 2 gusting 8 8.9
2016-May-27 00:12 113 2 gusting 8 8.9
2016-May-27 00:07 063 4 gusting 8 8.9
2016-May-27 00:02 057 3 gusting 8 8.9
2016-May-26 23:57 051 2 gusting 8 8.9
2016-May-26 23:52 033 2 gusting 9 8.9
2016-May-26 23:47 046 2 gusting 9 8.9
2016-May-26 23:42 042 2 gusting 9 8.9
2016-May-26 23:37 078 3 gusting 9 9.4
2016-May-26 23:32 095 4 gusting 6 9.4
2016-May-26 23:27 032 2 gusting 6 9.4
2016-May-26 23:22 057 0 gusting 7 9.4
2016-May-26 23:17 047 0 gusting 7 9.4
2016-May-26 23:12 053 1 gusting 7 9.4
2016-May-26 23:07 040 1 gusting 8 9.4
2016-May-26 23:02 033 2 gusting 8 9.4
2016-May-26 22:57 046 2 gusting 8 9.4
2016-May-26 22:52 036 2 gusting 9 9.4
2016-May-26 22:47 086 2 gusting 9 9.4
2016-May-26 22:42 045 3 gusting 9 9.4
2016-May-26 22:37 077 2 gusting 9 9.4
2016-May-26 22:32 069 2 gusting 10 9.4
2016-May-26 22:27 018 3 gusting 10 9.4
2016-May-26 22:22 058 3 gusting 10 9.4
2016-May-26 22:17 053 4 gusting 7 9.4
2016-May-26 22:12 039 3 gusting 7 9.4
2016-May-26 22:07 009 2 gusting 6 9.4
2016-May-26 22:02 078 1 gusting 6 10.0
2016-May-26 21:57 015 1 gusting 6 10.0
2016-May-26 21:52 050 2 gusting 6 10.0
2016-May-26 21:47 078 2 gusting 6 10.0
2016-May-26 21:42 076 1 gusting 6 10.0
2016-May-26 21:37 057 0 gusting 6 10.0
2016-May-26 21:32 065 1 gusting 6 10.0
2016-May-26 21:27 065 2 gusting 8 10.0
2016-May-26 21:22 032 2 gusting 8 10.0
2016-May-26 21:17 047 1 gusting 8 10.0
2016-May-26 21:12 009 2 gusting 9 10.0
2016-May-26 21:07 037 3 gusting 11 10.0
2016-May-26 21:02 062 3 gusting 11 10.0
2016-May-26 20:57 036 3 gusting 11 10.0
2016-May-26 20:52 079 2 gusting 11 10.0
2016-May-26 20:47 068 3 gusting 11 10.0
2016-May-26 20:42 049 4 gusting 11 10.0
2016-May-26 20:37 060 4 gusting 10 10.0
2016-May-26 20:32 069 3 gusting 10 10.0
2016-May-26 20:27 015 3 gusting 10 10.0
2016-May-26 20:22 060 2 gusting 10 10.0
2016-May-26 20:17 055 3 gusting 10 10.6
2016-May-26 20:12 095 2 gusting 10 10.6
2016-May-26 20:07 042 2 gusting 6 10.6
2016-May-26 20:02 053 3 gusting 6 10.6
2016-May-26 19:57 063 4 gusting 6 10.6
2016-May-26 19:52 069 3 gusting 6 10.6
2016-May-26 19:47 045 2 gusting 12 10.6
2016-May-26 19:42 082 1 gusting 12 10.6
2016-May-26 19:37 043 3 gusting 13 11.1
2016-May-26 19:32 090 4 gusting 13 11.1
2016-May-26 19:27 078 4 gusting 13 11.1
2016-May-26 19:22 111 4 gusting 13 11.7
2016-May-26 19:17 108 4 gusting 13 11.7
2016-May-26 19:12 107 5 gusting 13 11.7
2016-May-26 19:07 114 5 gusting 11 11.7
2016-May-26 19:02 074 5 gusting 11 11.7
2016-May-26 18:57 105 5 gusting 11 11.7
2016-May-26 18:52 088 4 gusting 11 11.7
2016-May-26 18:47 047 4 gusting 11 11.7
2016-May-26 18:42 051 4 gusting 11 11.7
2016-May-26 18:37 026 3 gusting 10 11.7
2016-May-26 18:32 105 3 gusting 10 11.7
2016-May-26 18:27 013 3 gusting 10 11.7
2016-May-26 18:22 038 3 gusting 10 11.7
2016-May-26 18:17 044 3 gusting 11 11.7
2016-May-26 18:12 082 4 gusting 11 11.7
2016-May-26 18:07 015 4 gusting 11 11.7
2016-May-26 18:02 017 4 gusting 11 11.7
2016-May-26 17:57 015 4 gusting 11 11.7
2016-May-26 17:52 059 5 gusting 11 11.7
2016-May-26 17:47 055 4 gusting 10 12.2
2016-May-26 17:42 066 4 gusting 10 12.2
2016-May-26 17:37 050 3 gusting 8 12.2
2016-May-26 17:32 070 3 gusting 8 12.2
2016-May-26 17:27 047 4 gusting 8 12.2
2016-May-26 17:22 101 3 gusting 8 12.8
2016-May-26 17:17 088 2 gusting 10 12.8
2016-May-26 17:12 041 3 gusting 10 12.8
2016-May-26 17:07 028 3 gusting 13 12.8
2016-May-26 17:02 078 3 gusting 13 12.8
2016-May-26 16:57 063 4 gusting 13 12.8
2016-May-26 16:52 047 5 gusting 13 12.8
2016-May-26 16:47 340 5 gusting 13 12.8
2016-May-26 16:42 049 5 gusting 13 12.8
2016-May-26 16:37 050 5 gusting 14 13.3
2016-May-26 16:32 046 5 gusting 14 13.3
2016-May-26 16:27 282 7 gusting 14 13.3
2016-May-26 16:22 038 6 gusting 12 13.3
2016-May-26 16:17 034 5 gusting 12 13.3
2016-May-26 16:12 049 3 gusting 12 13.3
2016-May-26 16:07 015 3 gusting 12 13.3
2016-May-26 16:02 355 4 gusting 13 13.3
2016-May-26 15:57 076 6 gusting 13 13.3
2016-May-26 15:52 045 6 gusting 13 13.3
2016-May-26 15:47 088 4 gusting 12 13.3
2016-May-26 15:42 093 5 gusting 12 13.3
2016-May-26 15:37 067 6 gusting 12 13.3
2016-May-26 15:32 096 5 gusting 12 13.3
2016-May-26 15:27 036 5 gusting 14 13.3
2016-May-26 15:22 063 4 gusting 14 13.3
2016-May-26 15:17 088 3 gusting 14 13.3
2016-May-26 15:12 070 3 gusting 14 13.3
2016-May-26 15:07 067 3 gusting 13 13.3
2016-May-26 15:02 156 5 gusting 13 13.3
2016-May-26 14:57 105 5 gusting 13 13.3
2016-May-26 14:52 054 5 gusting 11 13.3
2016-May-26 14:47 005 4 gusting 11 13.3
2016-May-26 14:42 028 4 gusting 11 13.3
2016-May-26 14:37 077 4 gusting 11 13.3
2016-May-26 14:32 064 4 gusting 11 13.3
2016-May-26 14:27 067 4 gusting 11 13.3
2016-May-26 14:22 065 5 gusting 12 13.3
2016-May-26 14:17 050 5 gusting 12 13.3
2016-May-26 14:12 078 5 gusting 12 13.3
2016-May-26 14:07 060 5 gusting 13 13.3
2016-May-26 14:02 084 4 gusting 13 13.3
2016-May-26 13:57 046 5 gusting 13 13.3
2016-May-26 13:52 067 4 gusting 9 12.8
2016-May-26 13:47 069 3 gusting 9 12.8
2016-May-26 13:42 038 4 gusting 9 12.8
2016-May-26 13:37 058 4 gusting 12 12.8
2016-May-26 13:32 078 3 gusting 12 12.8
2016-May-26 13:27 149 4 gusting 12 12.8
2016-May-26 13:22 140 5 gusting 12 12.8
2016-May-26 13:17 066 5 gusting 12 12.8
2016-May-26 13:12 084 4 gusting 12 12.8
2016-May-26 13:07 032 4 gusting 9 12.8
2016-May-26 13:02 031 4 gusting 9 12.8
2016-May-26 12:57 017 2 gusting 9 12.8
2016-May-26 12:52 109 3 gusting 14 12.8
2016-May-26 12:47 063 4 gusting 14 12.8
2016-May-26 12:42 065 4 gusting 14 12.8
2016-May-26 12:37 098 5 gusting 12 12.8
2016-May-26 12:32 065 5 gusting 12 12.8
2016-May-26 12:27 058 4 gusting 12 12.8
2016-May-26 12:22 080 6 gusting 12 13.3
2016-May-26 12:17 016 6 gusting 12 13.3
2016-May-26 12:12 119 5 gusting 12 13.3
2016-May-26 12:07 063 5 gusting 11 13.3
2016-May-26 12:02 073 5 gusting 11 13.9
2016-May-26 11:57 084 3 gusting 11 13.9
2016-May-26 11:52 091 3 gusting 12 13.9
2016-May-26 11:47 115 3 gusting 12 14.4
2016-May-26 11:42 065 4 gusting 12 14.4
2016-May-26 11:37 042 5 gusting 13 14.4
2016-May-26 11:32 038 4 gusting 13 14.4
2016-May-26 11:27 040 4 gusting 13 13.9
2016-May-26 11:22 082 5 gusting 13 13.9
2016-May-26 11:17 081 6 gusting 13 13.9
2016-May-26 11:12 066 6 gusting 14 13.9
2016-May-26 11:07 070 6 gusting 14 13.9
2016-May-26 11:02 005 6 gusting 14 13.9
2016-May-26 10:57 038 4 gusting 14 13.9
2016-May-26 10:52 036 5 gusting 14 13.9
2016-May-26 10:47 082 6 gusting 13 13.9
2016-May-26 10:42 040 6 gusting 13 13.9
2016-May-26 10:37 13.9
2016-May-26 10:32 048 4 gusting 13 13.9
2016-May-26 10:27 036 4 gusting 13 13.9
2016-May-26 10:22 056 4 gusting 13 13.9
2016-May-26 10:17 005 5 gusting 12 13.9
2016-May-26 10:12 021 5 gusting 12 13.9
2016-May-26 10:07 043 6 gusting 12 14.4
2016-May-26 10:02 046 6 gusting 12 14.4
2016-May-26 09:57 046 6 gusting 14 14.4
2016-May-26 09:52 069 5 gusting 14 14.4
2016-May-26 09:47 103 4 gusting 14 14.4
2016-May-26 09:42 121 6 gusting 14 14.4
2016-May-26 09:37 043 6 gusting 10 14.4
2016-May-26 09:32 032 6 gusting 10 14.4
2016-May-26 09:27 038 4 gusting 10 15.0
2016-May-26 09:22 055 3 gusting 11 15.0
2016-May-26 09:17 044 3 gusting 11 15.0
2016-May-26 09:12 053 3 gusting 11 15.0
2016-May-26 09:07 029 3 gusting 12 15.0
2016-May-26 09:02 120 5 gusting 12 15.0
2016-May-26 08:57 026 5 gusting 12 15.0
2016-May-26 08:52 015 4 gusting 12 15.0
2016-May-26 08:47 057 5 gusting 11 15.0
2016-May-26 08:42 046 4 gusting 11 15.0
2016-May-26 08:37 077 4 gusting 9 15.0
2016-May-26 08:32 047 4 gusting 9 15.6
2016-May-26 08:27 019 2 gusting 9 15.6
2016-May-26 08:22 038 3 gusting 9 15.6
2016-May-26 08:17 117 4 gusting 8 15.6
2016-May-26 08:12 030 3 gusting 8 15.6
2016-May-26 08:07 15.6
2016-May-26 08:02 033 1 gusting 8 15.6
2016-May-26 07:57 013 1 gusting 8 15.6
2016-May-26 07:52 057 2 gusting 7 15.6
2016-May-26 07:47 032 3 gusting 7 15.6
2016-May-26 07:42 053 2 gusting 7 15.6
2016-May-26 07:37 069 2 gusting 6 15.6
2016-May-26 07:32 036 2 gusting 6 15.6
2016-May-26 07:27 078 2 gusting 10 15.6
2016-May-26 07:22 077 2 gusting 10 15.0
2016-May-26 07:17 018 1 gusting 10 15.6
2016-May-26 07:12 034 3 gusting 10 15.6
2016-May-26 07:07 068 3 gusting 11 15.6
2016-May-26 07:02 040 3 gusting 11 15.6
2016-May-26 06:57 052 4 gusting 11 15.6
2016-May-26 06:52 024 3 gusting 11 15.6
2016-May-26 06:47 092 3 gusting 11 15.6
2016-May-26 06:42 067 3 gusting 11 16.1
2016-May-26 06:37 074 4 gusting 8 16.1
2016-May-26 06:32 082 4 gusting 8 16.1
2016-May-26 06:27 057 3 gusting 10 16.1
2016-May-26 06:22 041 3 gusting 10 16.1
2016-May-26 06:17 045 3 gusting 10 16.1
2016-May-26 06:12 028 3 gusting 8 16.1
2016-May-26 06:07 024 2 gusting 8 16.1
2016-May-26 06:02 055 2 gusting 8 16.1
2016-May-26 05:57 022 2 gusting 8 15.6
2016-May-26 05:52 017 3 gusting 8 15.6
2016-May-26 05:47 051 3 gusting 7 15.6
2016-May-26 05:42 086 3 gusting 7 15.6
2016-May-26 05:37 066 2 gusting 7 15.6
2016-May-26 05:32 059 2 gusting 7 15.6
2016-May-26 05:27 016 2 gusting 7 15.6
2016-May-26 05:22 030 2 gusting 7 15.6
2016-May-26 05:17 005 2 gusting 7 15.6
2016-May-26 05:12 055 2 gusting 10 15.6
2016-May-26 05:07 081 3 gusting 10 15.6
2016-May-26 05:02 030 3 gusting 10 15.6
2016-May-26 04:57 096 3 gusting 9 15.6
2016-May-26 04:52 038 3 gusting 9 15.6
2016-May-26 04:47 074 3 gusting 10 15.6
2016-May-26 04:42 042 3 gusting 10 15.6
2016-May-26 04:37 078 4 gusting 10 15.6
2016-May-26 04:32 098 3 gusting 9 15.0
2016-May-26 04:27 088 4 gusting 9 15.0
2016-May-26 04:22 088 4 gusting 9 15.0
2016-May-26 04:17 005 3 gusting 8 15.0
2016-May-26 04:12 155 3 gusting 8 15.0
2016-May-26 04:07 076 2 gusting 8 15.0
2016-May-26 04:02 031 3 gusting 8 15.0
2016-May-26 03:57 011 3 gusting 9 15.0
2016-May-26 03:52 355 3 gusting 9 14.4
2016-May-26 03:47 349 3 gusting 9 14.4
2016-May-26 03:42 047 3 gusting 9 14.4
2016-May-26 03:37 028 4 gusting 7 14.4
2016-May-26 03:32 024 4 gusting 7 14.4
2016-May-26 03:27 026 3 gusting 7 14.4
2016-May-26 03:22 024 3 gusting 7 14.4
2016-May-26 03:17 013 2 gusting 8 14.4
2016-May-26 03:12 013 2 gusting 8 14.4
2016-May-26 03:07 028 2 gusting 7 14.4
2016-May-26 03:02 011 2 gusting 7 14.4
2016-May-26 02:57 042 3 gusting 7 14.4
2016-May-26 02:52 032 3 gusting 7 14.4
2016-May-26 02:47 349 3 gusting 8 14.4
2016-May-26 02:42 062 3 gusting 8 13.9
2016-May-26 02:37 045 3 gusting 8 13.9
2016-May-26 02:32 018 3 gusting 9 13.9
2016-May-26 02:27 022 3 gusting 9 13.9
2016-May-26 02:22 053 4 gusting 9 13.9
2016-May-26 02:17 13.9
2016-May-26 02:12 012 3 gusting 8 13.9
2016-May-26 02:07 355 3 gusting 8 13.9
2016-May-26 02:02 348 3 gusting 8 13.9
2016-May-26 01:57 005 3 gusting 8 13.9
2016-May-26 01:52 355 3 gusting 7 13.9
2016-May-26 01:47 005 3 gusting 7 13.3
2016-May-26 01:42 025 3 gusting 7 13.3
2016-May-26 01:37 034 3 gusting 7 13.3
2016-May-26 01:32 020 3 gusting 7 13.3
2016-May-26 01:27 011 3 gusting 7 13.3
2016-May-26 01:22 022 2 gusting 6 13.3
2016-May-26 01:17 355 2 gusting 6 13.3
2016-May-26 01:12 024 2 gusting 6 13.3
2016-May-26 01:07 348 2 gusting 6 13.3
2016-May-26 01:02 005 3 gusting 6 13.3
2016-May-26 00:57 013 2 gusting 6 13.3
2016-May-26 00:52 015 2 gusting 6 13.3
2016-May-26 00:47 005 3 gusting 6 13.3
2016-May-26 00:42 005 3 gusting 7 13.3
2016-May-26 00:37 011 3 gusting 7 13.3
2016-May-26 00:32 018 3 gusting 6 13.3
2016-May-26 00:27 013 3 gusting 6 13.3
2016-May-26 00:22 019 3 gusting 7 13.3
2016-May-26 00:17 005 3 gusting 7 13.3
2016-May-26 00:12 015 3 gusting 6 13.3
2016-May-26 00:07 350 3 gusting 6 13.3
2016-May-26 00:02 039 2 gusting 7 13.3
2016-May-25 23:57 005 2 gusting 7 13.9
2016-May-25 23:52 017 3 gusting 7 13.9
2016-May-25 23:47 038 3 gusting 7 13.9
2016-May-25 23:42 026 3 gusting 7 13.9
2016-May-25 23:37 351 3 gusting 7 13.9
2016-May-25 23:32 009 3 gusting 7 13.9
2016-May-25 23:27 13.9
2016-May-25 23:22 039 3 gusting 7 13.9
2016-May-25 23:17 085 3 gusting 7 13.9
2016-May-25 23:12 009 3 gusting 7 13.9
2016-May-25 23:07 355 4 gusting 8 13.9
2016-May-25 23:02 009 4 gusting 8 13.9
2016-May-25 22:57 081 3 gusting 8 13.9
2016-May-25 22:52 041 2 gusting 8 13.9
2016-May-25 22:47 022 2 gusting 8 13.9
2016-May-25 22:42 005 2 gusting 8 13.9
2016-May-25 22:37 346 3 gusting 8 13.9
2016-May-25 22:32 13.9
2016-May-25 22:27 024 2 gusting 7 13.9
2016-May-25 22:22 016 2 gusting 8 13.9
2016-May-25 22:17 13.9
2016-May-25 22:12 011 3 gusting 8 13.9
2016-May-25 22:07 028 4 gusting 9 13.9
2016-May-25 22:02 055 3 gusting 9 13.9